WD6FGE Weather Reports


Display with metric or nautical units.
time (UTC)temp
F
wind
direction
speed
MPH
gust
MPH
rain 1hr
in
rain 24hr
in
rain mn
in
humidity
%
barometer
mb
20200220085907 27 5 0.0 0.0 0.00 0.00 0.00 80 1023.6
20200220084903 26 5 0.0 0.0 0.00 0.00 0.00 79 1023.6
20200220083926 27 5 0.0 0.0 0.00 0.00 0.00 78 1023.7
20200220082901 27 5 0.0 0.0 0.00 0.00 0.00 78 1023.7
20200220081859 27 5 0.0 0.0 0.00 0.00 0.00 78 1023.7
20200220080918 28 5 0.0 0.0 0.00 0.00 0.00 77 1023.6
20200220075900 28 226 0.0 0.0 0.00 0.00 0.00 78 1023.6
20200220074917 28 226 0.0 0.0 0.00 0.00 0.00 77 1023.5
20200220073913 29 333 0.0 0.0 0.00 0.00 0.00 76 1023.5
20200220072921 29 333 0.0 0.0 0.00 0.00 0.00 75 1023.5
20200220071932 30 247 0.0 2.0 0.00 0.00 0.00 74 1023.5
20200220070938 30 176 0.0 0.0 0.00 0.00 0.00 75 1023.4
20200220070001 30 176 0.0 0.0 0.00 0.00 0.00 75 1023.5
20200220064937 30 165 0.0 0.0 0.00 0.00 0.00 74 1023.4
20200220063902 30 165 0.0 0.0 0.00 0.00 0.00 75 1023.3
20200220062915 30 165 0.0 0.0 0.00 0.00 0.00 76 1023.3
20200220061902 30 165 1.0 3.0 0.00 0.00 0.00 76 1023.2
20200220060926 31 178 1.0 5.0 0.00 0.00 0.00 74 1023.2
20200220055948 32 124 0.0 3.0 0.00 0.00 0.00 72 1023.1
20200220054949 32 132 0.0 3.0 0.00 0.00 0.00 70 1023.1
20200220053958 33 273 0.0 3.0 0.00 0.00 0.00 68 1023.0
20200220052952 34 182 0.0 2.0 0.00 0.00 0.00 65 1022.9
20200220052000 34 149 0.0 3.0 0.00 0.00 0.00 66 1023.0
20200220050926 35 173 0.0 0.0 0.00 0.00 0.00 65 1022.8
20200220045927 35 174 0.0 2.0 0.00 0.00 0.00 64 1022.7
20200220044932 36 161 0.0 1.0 0.00 0.00 0.00 62 1022.7
20200220043928 38 151 1.0 6.0 0.00 0.00 0.00 57 1022.6
20200220042930 41 170 1.0 5.0 0.00 0.00 0.00 47 1022.3
20200220041915 38 23 1.0 7.0 0.00 0.00 0.00 51 1022.3
20200220040912 37 0 1.0 7.0 0.00 0.00 0.00 56 1022.1
20200220035854 37 344 0.0 2.0 0.00 0.00 0.00 56 1022.0
20200220034829 37 166 0.0 0.0 0.00 0.00 0.00 59 1022.1
20200220033757 36 166 0.0 2.0 0.00 0.00 0.00 56 1022.1
20200220032809 37 136 0.0 0.0 0.00 0.00 0.00 55 1022.0
20200220031808 38 34 0.0 4.0 0.00 0.00 0.00 54 1021.9
20200220030756 37 238 0.0 1.0 0.00 0.00 0.00 54 1021.8
20200220025731 40 79 0.0 2.0 0.00 0.00 0.00 54 1021.5
20200220024750 40 5 1.0 5.0 0.00 0.00 0.00 55 1021.5
20200220023800 41 325 0.0 5.0 0.00 0.00 0.00 51 1021.5
20200220022807 42 328 0.0 3.0 0.00 0.00 0.00 52 1021.5
20200220021816 42 115 0.0 2.0 0.00 0.00 0.00 51 1021.3
20200220020811 44 290 0.0 0.0 0.00 0.00 0.00 49 1021.0
20200220015739 45 289 0.0 0.0 0.00 0.00 0.00 47 1020.9
20200220014749 46 289 0.0 0.0 0.00 0.00 0.00 46 1020.8
20200220013804 48 305 0.0 1.0 0.00 0.00 0.00 43 1020.7
20200220012755 50 306 0.0 0.0 0.00 0.00 0.00 41 1020.7
20200220011739 52 306 0.0 0.0 0.00 0.00 0.00 37 1020.8
20200220010719 53 335 0.0 2.0 0.00 0.00 0.00 33 1020.8
20200220005724 54 285 0.0 0.0 0.00 0.00 0.00 32 1020.8
20200220004743 56 329 0.0 0.0 0.00 0.00 0.00 31 1020.8
20200220003742 57 329 0.0 0.0 0.00 0.00 0.00 27 1020.9
20200220002759 58 315 0.0 2.0 0.00 0.00 0.00 26 1020.9
20200220001732 58 299 0.0 5.0 0.00 0.00 0.00 27 1020.9
20200220000718 58 25 0.0 3.0 0.00 0.00 0.00 24 1021.0
20200219235643 58 38 2.0 6.0 0.00 0.00 0.00 25 1021.0
20200219234707 58 0 2.0 7.0 0.00 0.00 0.00 25 1021.0
20200219233709 58 0 2.0 7.0 0.00 0.00 0.00 25 1021.0
20200219232701 58 45 1.0 6.0 0.00 0.00 0.00 25 1021.1
20200219231715 58 27 1.0 7.0 0.00 0.00 0.00 25 1021.2
20200219230717 58 323 2.0 7.0 0.00 0.00 0.00 26 1021.4
20200219225713 58 40 2.0 6.0 0.00 0.00 0.00 26 1021.4
20200219224659 57 317 2.0 6.0 0.00 0.00 0.00 27 1021.5
20200219223657 57 65 2.0 8.0 0.00 0.00 0.00 26 1021.5
20200219222647 57 321 2.0 8.0 0.00 0.00 0.00 26 1021.6
20200219221649 57 30 2.0 8.0 0.00 0.00 0.00 27 1021.8
20200219220645 56 39 2.0 8.0 0.00 0.00 0.00 26 1021.9
20200219215641 55 205 1.0 5.0 0.00 0.00 0.00 27 1022.1
20200219214652 55 340 2.0 8.0 0.00 0.00 0.00 27 1022.3
20200219213620 55 0 2.0 8.0 0.00 0.00 0.00 27 1022.4
20200219212611 55 66 1.0 6.0 0.00 0.00 0.00 27 1022.6
20200219211551 54 261 1.0 6.0 0.00 0.00 0.00 29 1022.8
20200219210552 54 12 2.0 6.0 0.00 0.00 0.00 31 1023.0
20200219205549 53 26 1.0 6.0 0.00 0.00 0.00 29 1023.2
20200219204522 52 286 1.0 8.0 0.00 0.00 0.00 29 1023.5
20200219203525 52 101 2.0 9.0 0.00 0.00 0.00 31 1023.6
20200219202530 52 30 3.0 9.0 0.00 0.00 0.00 30 1024.0
20200219201526 52 61 2.0 7.0 0.00 0.00 0.00 31 1024.2
20200219200507 50 69 2.0 9.0 0.00 0.00 0.00 31 1024.4
20200219195445 50 58 2.0 9.0 0.00 0.00 0.00 31 1024.6
20200219194451 49 5 1.0 8.0 0.00 0.00 0.00 32 1024.9
20200219193459 49 101 0.0 5.0 0.00 0.00 0.00 33 1025.1
20200219192441 48 117 1.0 9.0 0.00 0.00 0.00 36 1025.2
20200219191504 46 74 3.0 9.0 0.00 0.00 0.00 37 1025.3
20200219190443 46 162 2.0 7.0 0.00 0.00 0.00 37 1025.3
20200219185414 45 35 2.0 7.0 0.00 0.00 0.00 39 1025.5
20200219184437 45 321 1.0 6.0 0.00 0.00 0.00 42 1025.5
20200219183450 44 22 2.0 5.0 0.00 0.00 0.00 40 1025.7
20200219182511 43 28 1.0 7.0 0.00 0.00 0.00 42 1025.8
20200219181450 42 37 2.0 7.0 0.00 0.00 0.00 44 1025.8
20200219180455 41 101 1.0 7.0 0.00 0.00 0.00 46 1025.8
20200219175444 40 322 1.0 5.0 0.00 0.00 0.00 51 1025.9
20200219174423 37 46 1.0 5.0 0.00 0.00 0.00 59 1026.0
20200219173406 34 171 0.0 2.0 0.00 0.00 0.00 71 1026.2
20200219172340 32 163 0.0 2.0 0.00 0.00 0.00 75 1026.3
20200219171318 30 163 0.0 2.0 0.00 0.00 0.00 82 1026.3
20200219170335 28 163 0.0 1.0 0.00 0.00 0.00 85 1026.3
20200219165327 26 163 0.0 0.0 0.00 0.00 0.00 87 1026.3
20200219164313 25 163 0.0 1.0 0.00 0.00 0.00 88 1026.3
20200219163258 23 163 0.0 1.0 0.00 0.00 0.00 89 1026.2
20200219162304 22 163 0.0 2.0 0.00 0.00 0.00 90 1026.2
20200219161238 20 163 0.0 2.0 0.00 0.00 0.00 89 1026.2
20200219160248 19 334 0.0 0.0 0.00 0.00 0.00 89 1026.0
20200219155230 18 334 0.0 0.0 0.00 0.00 0.00 89 1025.9
20200219154211 17 334 0.0 0.0 0.00 0.00 0.00 89 1025.7
20200219153159 17 334 0.0 0.0 0.00 0.00 0.00 89 1025.6
20200219152150 17 334 0.0 0.0 0.00 0.00 0.00 88 1025.4
20200219151151 17 334 0.0 0.0 0.00 0.00 0.00 88 1025.3
20200219150212 16 334 0.0 0.0 0.00 0.00 0.00 88 1025.2
20200219145214 17 334 0.0 0.0 0.00 0.00 0.00 88 1025.1
20200219144208 17 334 0.0 0.0 0.00 0.00 0.00 88 1025.0
20200219143146 17 334 0.0 0.0 0.00 0.00 0.00 88 1024.9
20200219142159 17 334 0.0 0.0 0.00 0.00 0.00 88 1024.7
20200219141210 17 334 0.0 0.0 0.00 0.00 0.00 88 1024.6
20200219140230 17 334 0.0 0.0 0.00 0.00 0.00 88 1024.5
20200219135254 17 334 0.0 0.0 0.00 0.00 0.00 88 1024.4
20200219134254 17 334 0.0 0.0 0.00 0.00 0.00 87 1024.4
20200219133237 17 334 0.0 0.0 0.00 0.00 0.00 87 1024.3
20200219132228 18 334 0.0 0.0 0.00 0.00 0.00 87 1024.3
20200219131211 18 334 0.0 0.0 0.00 0.00 0.00 87 1024.1
20200219130236 18 334 0.0 0.0 0.00 0.00 0.00 87 1024.1
20200219125249 18 334 0.0 0.0 0.00 0.00 0.00 87 1024.0
20200219124314 18 334 0.0 0.0 0.00 0.00 0.00 86 1023.8
20200219123243 18 334 0.0 0.0 0.00 0.00 0.00 86 1023.7
20200219122232 18 334 0.0 0.0 0.00 0.00 0.00 86 1023.7
20200219121249 18 334 0.0 0.0 0.00 0.00 0.00 86 1023.5
20200219120305 19 334 0.0 0.0 0.00 0.00 0.00 86 1023.5
20200219115248 19 334 0.0 0.0 0.00 0.00 0.00 85 1023.3
20200219114229 19 334 0.0 0.0 0.00 0.00 0.00 85 1023.3
20200219113252 19 334 0.0 0.0 0.00 0.00 0.00 84 1023.4
20200219112219 19 334 0.0 0.0 0.00 0.00 0.00 84 1023.4
20200219111241 19 334 0.0 0.0 0.00 0.00 0.00 84 1023.4
20200219110259 19 334 0.0 2.0 0.00 0.00 0.00 83 1023.4
20200219105259 20 334 0.0 0.0 0.00 0.00 0.00 83 1023.4
20200219104310 20 334 0.0 0.0 0.00 0.00 0.00 82 1023.5
20200219103247 20 334 0.0 0.0 0.00 0.00 0.00 82 1023.4
20200219102216 20 334 0.0 1.0 0.00 0.00 0.00 82 1023.4
20200219101239 21 334 0.0 0.0 0.00 0.00 0.00 82 1023.4
20200219100204 21 334 0.0 0.0 0.00 0.00 0.00 81 1023.4
20200219095202 21 334 0.0 0.0 0.00 0.00 0.00 80 1023.3
20200219094132 21 334 0.0 0.0 0.00 0.00 0.00 81 1023.2
20200219093107 21 334 0.0 0.0 0.00 0.00 0.00 80 1023.2
20200219092048 22 334 0.0 0.0 0.00 0.00 0.00 80 1023.2
20200219091018 22 334 0.0 0.0 0.00 0.00 0.00 79 1023.2